When you browse on this site, cookies collect data to enhance your experience and personalize the content and advertising you see.
Visit our Privacy Policy to learn more. By continuing to use the site, you agree to this use of cookies and data.
  • In Romania
  • List of Countries
  • For 7 days
  • Water Temperature
  • Weather Map
  • Weather Widgets
  • user-avatar
    Login

    Hourly Weather Tatabanya

    Today, 24 February, Monday

    Time Temperature Precipitation Wind Pressure Humidity
    00:00 +11°C° 0 mm 8 mps 736 mmHg 66%
    01:00 +11°C° 0 mm 7 mps 735 mmHg 68%
    02:00 +10°C° 0.2 mm 8 mps 736 mmHg 68%
    03:00 +8°C° 0.2 mm 9 mps 737 mmHg 68%
    04:00 +6°C° 0.2 mm 9 mps 738 mmHg 68%
    05:00 +5°C° 0 mm 9 mps 740 mmHg 65%
    06:00 +4°C° 0 mm 8 mps 741 mmHg 62%
    07:00 +3°C° 0 mm 6 mps 742 mmHg 61%
    08:00 +3°C° 0 mm 7 mps 743 mmHg 59%
    09:00 +4°C° 0 mm 7 mps 744 mmHg 57%
    10:00 +4°C° 0 mm 7 mps 745 mmHg 54%
    11:00 +5°C° 0 mm 7 mps 745 mmHg 53%
    12:00 +7°C° 0 mm 6 mps 745 mmHg 51%
    13:00 +7°C° 0 mm 6 mps 745 mmHg 50%
    14:00 +7°C° 0 mm 5 mps 745 mmHg 49%
    15:00 +7°C° 0 mm 4 mps 744 mmHg 48%
    16:00 +8°C° 0 mm 3 mps 744 mmHg 48%
    17:00 +7°C° 0 mm 3 mps 744 mmHg 53%
    18:00 +7°C° 0 mm 2 mps 743 mmHg 58%
    19:00 +6°C° 0 mm 2 mps 743 mmHg 63%
    20:00 +6°C° 0 mm 2 mps 742 mmHg 63%
    21:00 +5°C° 0 mm 3 mps 742 mmHg 63%
    22:00 +5°C° 0 mm 3 mps 742 mmHg 63%
    23:00 +5°C° 0 mm 4 mps 741 mmHg 62%

    Tomorrow, 25 February, Tuesday

    Time Temperature Precipitation Wind Pressure Humidity
    00:00 +5°C° 0 mm 4 mps 740 mmHg 61%
    01:00 +5°C° 0 mm 4 mps 740 mmHg 60%
    02:00 +4°C° 0 mm 4 mps 739 mmHg 62%
    03:00 +4°C° 0 mm 4 mps 738 mmHg 63%
    04:00 +3°C° 0 mm 3 mps 738 mmHg 65%
    05:00 +3°C° 0 mm 3 mps 737 mmHg 67%
    06:00 +3°C° 0 mm 3 mps 737 mmHg 69%
    07:00 +2°C° 0 mm 3 mps 737 mmHg 72%
    08:00 +4°C° 0 mm 3 mps 736 mmHg 68%
    09:00 +7°C° 0 mm 3 mps 736 mmHg 65%
    10:00 +9°C° 0 mm 3 mps 736 mmHg 61%
    11:00 +10°C° 0 mm 3 mps 735 mmHg 60%
    12:00 +12°C° 0 mm 4 mps 735 mmHg 58%
    13:00 +13°C° 0 mm 5 mps 734 mmHg 57%
    14:00 +12°C° 0 mm 4 mps 733 mmHg 61%
    15:00 +11°C° 0 mm 4 mps 732 mmHg 66%
    16:00 +11°C° 0 mm 4 mps 732 mmHg 71%
    17:00 +10°C° 0 mm 3 mps 731 mmHg 75%
    18:00 +9°C° 0 mm 3 mps 731 mmHg 79%
    19:00 +8°C° 0 mm 2 mps 731 mmHg 84%
    20:00 +8°C° 0.1 mm 2 mps 731 mmHg 84%
    21:00 +8°C° 0.1 mm 2 mps 730 mmHg 85%
    22:00 +8°C° 0.1 mm 2 mps 730 mmHg 85%
    23:00 +8°C° 0.8 mm 2 mps 729 mmHg 87%

    Day after tomorrow, 26 February, Wednesday

    Time Temperature Precipitation Wind Pressure Humidity
    00:00 +8°C° 0.8 mm 2 mps 729 mmHg 89%
    01:00 +8°C° 0.8 mm 2 mps 728 mmHg 91%
    02:00 +8°C° 0.6 mm 2 mps 728 mmHg 91%
    03:00 +7°C° 0.6 mm 3 mps 727 mmHg 91%
    04:00 +7°C° 0.6 mm 3 mps 727 mmHg 91%
    05:00 +7°C° 0.5 mm 3 mps 726 mmHg 91%
    06:00 +6°C° 0.5 mm 2 mps 726 mmHg 91%
    07:00 +6°C° 0.5 mm 2 mps 726 mmHg 91%
    08:00 +7°C° 0 mm 3 mps 726 mmHg 84%
    09:00 +6°C° 0 mm 4 mps 726 mmHg 76%
    10:00 +7°C° 0 mm 6 mps 726 mmHg 69%
    11:00 +7°C° 0 mm 6 mps 726 mmHg 66%
    12:00 +7°C° 0 mm 6 mps 726 mmHg 63%
    13:00 +6°C° 0 mm 7 mps 726 mmHg 61%
    14:00 +5°C° 0 mm 7 mps 726 mmHg 61%
    15:00 +5°C° 0 mm 7 mps 726 mmHg 61%
    16:00 +4°C° 0 mm 7 mps 726 mmHg 60%
    17:00 +4°C° 0 mm 6 mps 726 mmHg 60%
    18:00 +3°C° 0 mm 5 mps 726 mmHg 60%
    19:00 +3°C° 0 mm 4 mps 727 mmHg 59%
    20:00 +3°C° 0 mm 4 mps 727 mmHg 60%
    21:00 +2°C° 0 mm 5 mps 727 mmHg 60%
    22:00 +1°C° 0 mm 5 mps 728 mmHg 61%
    23:00 +1°C° 0 mm 6 mps 728 mmHg 63%

    27 February, Thursday

    Time Temperature Precipitation Wind Pressure Humidity
    00:00 +1°C° 0 mm 6 mps 728 mmHg 66%
    01:00 -1°C° 0 mm 6 mps 729 mmHg 68%
    02:00 -1°C° 0 mm 7 mps 729 mmHg 69%
    03:00 -1°C° 0 mm 7 mps 729 mmHg 71%
    04:00 -1°C° 0 mm 7 mps 729 mmHg 72%
    05:00 -2°C° 0 mm 6 mps 730 mmHg 73%
    06:00 -2°C° 0 mm 6 mps 731 mmHg 74%
    07:00 -1°C° 0 mm 5 mps 731 mmHg 76%
    08:00 -1°C° 0 mm 7 mps 732 mmHg 71%
    09:00 0°C° 0 mm 8 mps 732 mmHg 66%
    10:00 +1°C° 0 mm 9 mps 733 mmHg 61%
    11:00 +2°C° 0 mm 9 mps 733 mmHg 58%
    12:00 +2°C° 0 mm 9 mps 733 mmHg 55%
    13:00 +3°C° 0 mm 9 mps 734 mmHg 51%
    14:00 +4°C° 0 mm 8 mps 734 mmHg 52%
    15:00 +4°C° 0 mm 7 mps 734 mmHg 52%
    16:00 +4°C° 0 mm 7 mps 734 mmHg 53%
    17:00 +3°C° 0 mm 6 mps 734 mmHg 57%
    18:00 +3°C° 0 mm 4 mps 734 mmHg 62%
    19:00 +2°C° 0 mm 3 mps 735 mmHg 66%
    20:00 +1°C° 0 mm 3 mps 735 mmHg 67%
    21:00 +2°C° 0 mm 2 mps 734 mmHg 68%
    22:00 +2°C° 0 mm 2 mps 734 mmHg 69%
    23:00 +2°C° 0 mm 2 mps 734 mmHg 68%

    28 February, Friday

    Time Temperature Precipitation Wind Pressure Humidity
    00:00 +3°C° 0 mm 1 mps 733 mmHg 66%
    01:00 +3°C° 0 mm 1 mps 733 mmHg 65%
    02:00 +2°C° 0.1 mm 1 mps 733 mmHg 71%
    03:00 +1°C° 0.1 mm 2 mps 732 mmHg 77%
    04:00 +1°C° 0.1 mm 2 mps 732 mmHg 83%
    05:00 +1°C° 0.1 mm 2 mps 732 mmHg 86%
    06:00 +1°C° 0.1 mm 2 mps 733 mmHg 88%
    07:00 +1°C° 0.1 mm 2 mps 733 mmHg 90%
    08:00 +1°C° 0 mm 3 mps 734 mmHg 79%
    09:00 +1°C° 0 mm 5 mps 735 mmHg 67%
    10:00 +2°C° 0 mm 6 mps 736 mmHg 55%
    11:00 +3°C° 0 mm 6 mps 737 mmHg 53%
    12:00 +4°C° 0 mm 6 mps 737 mmHg 51%
    13:00 +4°C° 0 mm 7 mps 738 mmHg 49%
    14:00 +4°C° 0 mm 6 mps 738 mmHg 50%
    15:00 +5°C° 0 mm 5 mps 738 mmHg 51%
    16:00 +5°C° 0 mm 4 mps 739 mmHg 53%
    17:00 +4°C° 0 mm 4 mps 739 mmHg 60%
    18:00 +3°C° 0 mm 3 mps 739 mmHg 67%
    19:00 +3°C° 0 mm 2 mps 739 mmHg 74%
    20:00 +3°C° 0 mm 2 mps 739 mmHg 75%
    21:00 +3°C° 0 mm 2 mps 739 mmHg 77%
    22:00 +3°C° 0 mm 2 mps 739 mmHg 79%
    23:00 +3°C° 0 mm 2 mps 739 mmHg 79%

    29 February, Saturday

    Time Temperature Precipitation Wind Pressure Humidity
    00:00 +3°C° 0 mm 2 mps 738 mmHg 79%
    01:00 +3°C° 0 mm 2 mps 738 mmHg 79%
    02:00 +2°C° 0 mm 3 mps 737 mmHg 77%
    03:00 +2°C° 0 mm 3 mps 736 mmHg 74%
    04:00 +1°C° 0 mm 4 mps 736 mmHg 71%
    05:00 +1°C° 0 mm 4 mps 735 mmHg 71%
    06:00 +1°C° 0 mm 4 mps 735 mmHg 71%
    07:00 +1°C° 0 mm 4 mps 734 mmHg 71%
    08:00 +3°C° 0.3 mm 4 mps 734 mmHg 75%
    09:00 +4°C° 0.3 mm 4 mps 734 mmHg 79%
    10:00 +4°C° 0.3 mm 4 mps 734 mmHg 83%
    11:00 +7°C° 0 mm 4 mps 733 mmHg 78%
    12:00 +9°C° 0 mm 5 mps 733 mmHg 73%
    13:00 +11°C° 0 mm 6 mps 732 mmHg 67%
    14:00 +11°C° 0 mm 6 mps 731 mmHg 67%
    15:00 +12°C° 0 mm 5 mps 731 mmHg 67%
    16:00 +13°C° 0 mm 5 mps 730 mmHg 67%
    17:00 +12°C° 0 mm 5 mps 729 mmHg 71%
    18:00 +10°C° 0 mm 6 mps 729 mmHg 76%
    19:00 +9°C° 0 mm 6 mps 728 mmHg 80%
    20:00 +9°C° 0 mm 6 mps 728 mmHg 79%
    21:00 +9°C° 0 mm 6 mps 728 mmHg 79%
    22:00 +9°C° 0 mm 6 mps 727 mmHg 78%
    23:00 +6°C° 0.5 mm 7 mps 728 mmHg 76%
    Show more